Location: Unspecified
(0.0000°N, 0.0000°E)
Time: 21:26:47
(UTC+00:00)

N. Korean satellite - Pass Details

Date: 26 March 2023
Orbit: 390 x 416 km, 97.3° (Epoch: 29 March)

Event Time Altitude Azimuth Distance (km) Brightness Sun altitude
Rises 05:17:21 0° 1° (N) 2,279 10.0 -12.1°
Reaches altitude 10° 05:19:22 10° 354° (N) 1,422 8.9 -11.6°
Maximum altitude 05:22:16 43° 281° (W) 562 6.4 -10.9°
Drops below altitude 10° 05:25:10 10° 208° (SSW) 1,423 8.6 -10.2°
Sets 05:27:11 0° 201° (SSW) 2,280 9.7 -9.7°
